Orbital Elements at Epoch 2459000.5 (2020-May-31.0) TDB
Reference: JPL 24 (heliocentric ecliptic J2000)
Element | Value | Uncertainty (1-sigma) | Units |
e | .06498142936228729 | 4.8015e-08 | |
a | 3.076215380040375 | 2.2678e-08 | au |
q | 2.8763185076191 | 1.5165e-07 | au |
i | 7.383784085674329 | 5.4253e-06 | deg |
node | 276.5811068559765 | 4.1167e-05 | deg |
peri | 179.8619702028376 | 5.974e-05 | deg |
M | 34.08693266119275 | 4.2085e-05 | deg |
tp | 2458813.901152312198 (2019-Nov-26.40115231) | 0.00023028 | TDB |
period | 1970.71369944902 5.40 | 2.1792e-05 5.966e-08 | d yr |
n | .1826749365474296 | 2.02e-09 | deg/d |
Q | 3.27611225246165 | 2.4152e-08 | au |
|
| | Orbit Determination Parameters
Additional Information
|